TimeCDT,TemperatureF,Dew PointF,Humidity,Sea Level PressureIn,VisibilityMPH,Wind Direction,Wind SpeedMPH,Gust SpeedMPH,PrecipitationIn,Events,Conditions,WindDirDegrees,DateUTC
12:15 AM,71.6,68.0,88,30.09,10.0,SSW,4.6,-,N/A,,Overcast,210,2013-09-12 05:15:00
12:55 AM,69.8,68.0,94,30.08,10.0,Calm,Calm,-,N/A,,Overcast,0,2013-09-12 05:55:00
1:15 AM,69.8,68.0,94,30.08,10.0,Calm,Calm,-,N/A,,Overcast,0,2013-09-12 06:15:00
1:35 AM,69.8,68.0,94,30.08,10.0,SW,3.5,-,N/A,,Overcast,230,2013-09-12 06:35:00
1:55 AM,69.8,68.0,94,30.09,10.0,West,4.6,-,N/A,,Overcast,260,2013-09-12 06:55:00
2:15 AM,69.8,68.0,94,30.09,10.0,WSW,5.8,-,N/A,,Overcast,240,2013-09-12 07:15:00
2:35 AM,69.8,68.0,94,30.10,10.0,West,3.5,-,N/A,,Overcast,260,2013-09-12 07:35:00
2:55 AM,69.8,66.2,88,30.10,10.0,SW,3.5,-,N/A,,Overcast,220,2013-09-12 07:55:00
3:15 AM,69.8,68.0,94,30.10,10.0,West,4.6,-,N/A,,Overcast,270,2013-09-12 08:15:00
3:35 AM,69.8,68.0,94,30.10,10.0,WSW,4.6,-,N/A,,Overcast,240,2013-09-12 08:35:00
3:55 AM,69.8,68.0,94,30.10,10.0,SSW,8.1,-,N/A,,Overcast,200,2013-09-12 08:55:00
4:15 AM,69.8,68.0,94,30.10,10.0,SW,5.8,-,N/A,,Mostly Cloudy,220,2013-09-12 09:15:00
4:35 AM,69.8,68.0,94,30.10,10.0,WSW,8.1,-,N/A,,Mostly Cloudy,240,2013-09-12 09:35:00
4:55 AM,69.8,66.2,88,30.10,10.0,West,8.1,-,N/A,,Scattered Clouds,260,2013-09-12 09:55:00
5:15 AM,69.8,66.2,88,30.10,10.0,WSW,6.9,-,N/A,,Mostly Cloudy,250,2013-09-12 10:15:00
5:35 AM,69.8,66.2,88,30.11,10.0,WNW,6.9,-,N/A,,Overcast,290,2013-09-12 10:35:00
5:55 AM,68.0,66.2,94,30.11,10.0,WNW,5.8,-,N/A,,Mostly Cloudy,290,2013-09-12 10:55:00
6:15 AM,66.2,64.4,94,30.11,10.0,West,4.6,-,N/A,,Partly Cloudy,270,2013-09-12 11:15:00
6:35 AM,66.2,64.4,94,30.11,10.0,WNW,5.8,-,N/A,,Clear,300,2013-09-12 11:35:00
6:55 AM,64.4,62.6,94,30.11,10.0,NW,5.8,-,N/A,,Clear,310,2013-09-12 11:55:00
7:15 AM,64.4,62.6,94,30.11,10.0,NNW,4.6,-,N/A,,Clear,330,2013-09-12 12:15:00
7:35 AM,66.2,62.6,88,30.12,10.0,NNW,9.2,-,N/A,,Clear,330,2013-09-12 12:35:00
7:55 AM,66.2,60.8,83,30.12,10.0,North,9.2,-,N/A,,Clear,350,2013-09-12 12:55:00
8:15 AM,66.2,59.0,78,30.14,10.0,North,10.4,16.1,N/A,,Clear,360,2013-09-12 13:15:00
8:35 AM,68.0,57.2,68,30.14,10.0,North,12.7,-,N/A,,Clear,360,2013-09-12 13:35:00
8:55 AM,68.0,57.2,68,30.14,10.0,North,11.5,-,N/A,,Clear,360,2013-09-12 13:55:00
9:15 AM,69.8,57.2,64,30.15,10.0,North,11.5,-,N/A,,Clear,350,2013-09-12 14:15:00
9:35 AM,69.8,55.4,60,30.16,10.0,North,11.5,17.3,N/A,,Clear,360,2013-09-12 14:35:00
9:55 AM,71.6,55.4,57,30.17,10.0,North,11.5,-,N/A,,Clear,10,2013-09-12 14:55:00
10:15 AM,71.6,53.6,53,30.17,10.0,North,12.7,-,N/A,,Clear,360,2013-09-12 15:15:00
10:35 AM,73.4,55.4,53,30.18,10.0,North,11.5,-,N/A,,Clear,360,2013-09-12 15:35:00
10:55 AM,73.4,51.8,47,30.18,10.0,NNW,12.7,-,N/A,,Clear,340,2013-09-12 15:55:00
11:15 AM,75.2,50.0,41,30.18,10.0,North,12.7,-,N/A,,Clear,360,2013-09-12 16:15:00
11:35 AM,75.2,48.2,38,30.18,10.0,NNE,12.7,19.6,N/A,,Clear,30,2013-09-12 16:35:00
11:55 AM,75.2,44.6,34,30.18,10.0,North,18.4,24.2,N/A,,Clear,350,2013-09-12 16:55:00
12:15 PM,77.0,46.4,34,30.18,10.0,NNE,12.7,-,N/A,,Clear,20,2013-09-12 17:15:00
12:35 PM,77.0,46.4,34,30.17,10.0,North,17.3,-,N/A,,Partly Cloudy,10,2013-09-12 17:35:00
12:55 PM,77.0,46.4,34,30.17,10.0,North,10.4,20.7,N/A,,Clear,350,2013-09-12 17:55:00
1:15 PM,77.0,44.6,32,30.17,10.0,North,15.0,25.3,N/A,,Clear,350,2013-09-12 18:15:00
1:35 PM,78.8,44.6,30,30.16,10.0,North,18.4,25.3,N/A,,Clear,360,2013-09-12 18:35:00
1:55 PM,78.8,44.6,30,30.16,10.0,NNW,11.5,24.2,N/A,,Clear,330,2013-09-12 18:55:00
2:15 PM,78.8,44.6,30,30.15,10.0,North,13.8,21.9,N/A,,Clear,360,2013-09-12 19:15:00
2:35 PM,78.8,42.8,28,30.15,10.0,NNW,13.8,25.3,N/A,,Clear,340,2013-09-12 19:35:00
2:55 PM,78.8,42.8,28,30.14,10.0,NNW,11.5,23.0,N/A,,Clear,340,2013-09-12 19:55:00
3:15 PM,78.8,42.8,28,30.14,10.0,NNW,15.0,21.9,N/A,,Clear,330,2013-09-12 20:15:00
3:35 PM,78.8,42.8,28,30.13,10.0,North,10.4,20.7,N/A,,Clear,360,2013-09-12 20:35:00
3:55 PM,78.8,42.8,28,30.13,10.0,North,17.3,23.0,N/A,,Clear,350,2013-09-12 20:55:00
4:15 PM,78.8,42.8,28,30.13,10.0,NNW,15.0,26.5,N/A,,Clear,340,2013-09-12 21:15:00
4:35 PM,78.8,42.8,28,30.13,10.0,North,15.0,21.9,N/A,,Clear,350,2013-09-12 21:35:00
4:55 PM,77.0,42.8,29,30.13,10.0,North,15.0,24.2,N/A,,Clear,350,2013-09-12 21:55:00
5:15 PM,77.0,42.8,29,30.12,10.0,North,16.1,24.2,N/A,,Clear,360,2013-09-12 22:15:00
5:35 PM,77.0,42.8,29,30.12,10.0,North,13.8,23.0,N/A,,Clear,360,2013-09-12 22:35:00
5:55 PM,75.2,44.6,34,30.12,10.0,NNW,10.4,20.7,N/A,,Clear,340,2013-09-12 22:55:00
6:15 PM,75.2,44.6,34,30.13,10.0,North,13.8,19.6,N/A,,Clear,350,2013-09-12 23:15:00
6:35 PM,73.4,42.8,33,30.13,10.0,North,15.0,23.0,N/A,,Clear,10,2013-09-12 23:35:00
6:55 PM,73.4,44.6,36,30.14,10.0,North,10.4,17.3,N/A,,Clear,360,2013-09-12 23:55:00
7:15 PM,69.8,44.6,40,30.14,10.0,North,8.1,-,N/A,,Clear,360,2013-09-13 00:15:00
7:35 PM,66.2,46.4,49,30.14,10.0,North,6.9,-,N/A,,Clear,360,2013-09-13 00:35:00
7:55 PM,64.4,48.2,56,30.15,10.0,North,6.9,-,N/A,,Clear,360,2013-09-13 00:55:00
8:15 PM,64.4,48.2,56,30.15,10.0,North,6.9,-,N/A,,Clear,10,2013-09-13 01:15:00
8:35 PM,62.6,48.2,59,30.16,10.0,North,5.8,-,N/A,,Clear,360,2013-09-13 01:35:00
8:55 PM,62.6,48.2,59,30.16,10.0,North,8.1,-,N/A,,Clear,360,2013-09-13 01:55:00
9:15 PM,62.6,48.2,59,30.16,10.0,North,9.2,-,N/A,,Partly Cloudy,360,2013-09-13 02:15:00
9:35 PM,66.2,48.2,52,30.17,10.0,NNE,10.4,19.6,N/A,,Partly Cloudy,20,2013-09-13 02:35:00
9:55 PM,62.6,48.2,59,30.17,10.0,North,6.9,-,N/A,,Clear,10,2013-09-13 02:55:00
10:15 PM,60.8,48.2,63,30.17,10.0,North,5.8,-,N/A,,Clear,10,2013-09-13 03:15:00
10:35 PM,60.8,48.2,63,30.17,10.0,North,5.8,-,N/A,,Partly Cloudy,10,2013-09-13 03:35:00
10:55 PM,60.8,48.2,63,30.17,10.0,North,5.8,-,N/A,,Partly Cloudy,10,2013-09-13 03:55:00
11:15 PM,59.0,48.2,67,30.18,10.0,North,4.6,-,N/A,,Clear,10,2013-09-13 04:15:00
11:35 PM,60.8,48.2,63,30.18,10.0,North,4.6,-,N/A,,Clear,10,2013-09-13 04:35:00
11:55 PM,59.0,48.2,67,30.18,10.0,North,4.6,-,N/A,,Partly Cloudy,360,2013-09-13 04:55:00